Weather History for Greenville, AL

Change the Weather History Date:

Monday, April 21, 2014

  Actual Average Record
Temperature  
Mean Temperature 64 °F -  
Max Temperature 80 °F 79 °F 92 °F (1987)
Min Temperature 48 °F 54 °F 35 °F (1953)
Degree Days  
Heating Degree Days 2    
Growing Degree Days 14 (Base 50)    
Moisture  
Dew Point 52 °F    
Average Humidity 68    
Maximum Humidity 93    
Minimum Humidity 37    
Precipitation  
Precipitation 0.00 in - - ()
Sea Level Pressure  
Sea Level Pressure 30.07 in    
Wind  
Wind Speed 1 mph (SSE)    
Max Wind Speed 9 mph    
Max Gust Speed -    
Visibility 10 miles    
Events      
Averages and records for this station are not official NWS values.
T = Trace of Precipitation, MM = Missing Value Source: NWS Daily Summary

Daily Weather History Graph

Daily Weather History Graph

Search for Another Location

Airport:

Trip Planner

Search our weather history database for the weather conditions in past years. The results will help you decide how hot, cold, wet, or windy it might be!

Date:

Astronomy

Apr. 21, 2014 Rise Set
Actual Time 6:10 AM CDT 7:19 PM CDT
Civil Twilight 5:45 AM CDT 7:45 PM CDT
Nautical Twilight 5:15 AM CDT 8:15 PM CDT
Astronomical Twilight 4:44 AM CDT 8:46 PM CDT
Moon 12:44 AM CDT (4/21) 11:41 AM CDT (4/21)
Length of Visible Light 13h 59m
Length of Day
13h 08m
Waning Gibbous, 57% of the Moon is Illuminated
Apr 21
Waning Gibbous
Apr 22
Last Quarter
Apr 29
New
May 6
First Quarter
May 14
Full

Hourly Weather History & Observations

Time (CDT) Temp. Dew Point Humidity Pressure Visibility Wind Dir Wind Speed Gust Speed Precip Events Conditions
12:56 AM 54.0 °F 51.1 °F 90% 30.12 in 10.0 mi Calm Calm - N/A   Clear
1:56 AM 53.1 °F 50.0 °F 89% 30.12 in 10.0 mi Calm Calm - N/A   Clear
2:56 AM 52.0 °F 48.9 °F 89% 30.12 in 10.0 mi Calm Calm - N/A   Clear
3:56 AM 50.0 °F 48.0 °F 93% 30.11 in 9.0 mi Calm Calm - N/A   Clear
4:56 AM 50.0 °F 46.9 °F 89% 30.12 in 8.0 mi Calm Calm - N/A   Clear
5:56 AM 48.9 °F 46.9 °F 93% 30.12 in 8.0 mi Calm Calm - N/A   Clear
6:56 AM 51.1 °F 48.0 °F 89% 30.16 in 8.0 mi Calm Calm - N/A   Clear
7:56 AM 59.0 °F 55.0 °F 87% 30.17 in 8.0 mi Calm Calm - N/A   Clear
8:56 AM 64.9 °F 55.9 °F 73% 30.16 in 10.0 mi Calm Calm - N/A   Clear
9:56 AM 68.0 °F 55.0 °F 63% 30.15 in 10.0 mi East 5.8 mph - N/A   Clear
10:56 AM 71.1 °F 53.1 °F 53% 30.14 in 10.0 mi Variable 3.5 mph - N/A   Clear
11:56 AM 73.0 °F 53.1 °F 49% 30.12 in 10.0 mi SW 4.6 mph - N/A   Clear
12:56 PM 75.0 °F 51.1 °F 43% 30.08 in 10.0 mi NE 4.6 mph - N/A   Clear
1:56 PM 77.0 °F 51.1 °F 40% 30.06 in 10.0 mi East 9.2 mph - N/A   Clear
2:56 PM 77.0 °F 48.9 °F 37% 30.04 in 10.0 mi Variable 3.5 mph - N/A   Clear
3:56 PM 79.0 °F 52.0 °F 39% 30.01 in 10.0 mi Calm Calm - N/A   Clear
4:56 PM 78.1 °F 50.0 °F 37% 30.01 in 10.0 mi Variable 4.6 mph - N/A   Clear
5:56 PM 78.1 °F 51.1 °F 39% 29.99 in 10.0 mi SW 3.5 mph - N/A   Clear
6:56 PM 73.9 °F 48.9 °F 41% 29.98 in 10.0 mi Calm Calm - N/A   Clear
7:56 PM 66.9 °F 54.0 °F 63% 29.98 in 10.0 mi South 3.5 mph - N/A   Clear
8:56 PM 63.0 °F 57.0 °F 81% 29.99 in 10.0 mi Calm Calm - N/A   Clear
9:56 PM 62.1 °F 55.9 °F 80% 29.99 in 10.0 mi Calm Calm - N/A   Clear
10:56 PM 60.1 °F 55.9 °F 86% 29.98 in 10.0 mi Calm Calm - N/A   Clear
11:56 PM 57.9 °F 55.0 °F 90% 29.98 in 9.0 mi Calm Calm - N/A   Clear